Hourly Data Report for October 07, 2014

All times are specified in Local Standard Time (LST). Add 1 hour to adjust for Daylight Saving Time where and when it is observed.

HALL BEACH A
NUNAVUT

68°46'33.000" N
81°14'33.000" W
9.10 m
2402354
71293
YUX

Related Data

No related data is available for this station

Download Data

Hourly Data (October 2014)
Hourly Data Report for October 7, 2014
Temp Definition
°C
Dew Point Temp Definition
°C
Rel Hum Definition
%
Wind Dir Definition
10's deg

Wind Spd Definition
km/h
Visibility Definition
km
Stn Press Definition
kPa
Hmdx Definition


Wind Chill Definition


Weather Definition


TIME
00:00 Legend Double Dagger -1.8 -3.5 88 9 34 16.1 102.42   -9 LegendNANA
01:00 Legend Double Dagger -2.0 -3.6 89 9 34 16.1 102.43   -10 LegendNANA
02:00 Legend Double Dagger -2.0 -3.7 88 9 34 16.1 102.44   -10 LegendNANA
03:00 Legend Double Dagger -1.9 -3.8 87 10 34 16.1 102.42   -9 LegendNANA
04:00 Legend Double Dagger -1.9 -3.8 87 9 35 16.1 102.43   -9 LegendNANA
05:00 Legend Double Dagger -2.0 -3.7 88 9 35 16.1 102.44   -10 LegendNANA
06:00 Legend Double Dagger -2.1 -4.0 87 9 39 16.1 102.47   -10 LegendNANA
07:00 Legend Double Dagger -2.2 -4.1 87 9 37 16.1 102.48   -10 LegendNANA
08:00 Legend Double Dagger -2.1 -4.3 85 10 37 16.1 102.51   -10 LegendNANA
09:00 Legend Double Dagger -1.9 -3.8 87 9 32 16.1 102.52   -9 LegendNANA
10:00 Legend Double Dagger -1.7 -3.6 87 9 32 16.1 102.52   -9 LegendNANA
11:00 Legend Double Dagger -1.5 -3.7 85 9 32 16.1 102.52   -9 LegendNANA
12:00 Legend Double Dagger -1.4 -3.8 84 9 30 16.1 102.52   -8 LegendNANA
13:00 Legend Double Dagger -1.4 -3.7 84 9 30 16.1 102.52   -8 LegendNANA
14:00 Legend Double Dagger -1.4 -3.6 85 9 26 16.1 102.53   -8 LegendNANA
15:00 Legend Double Dagger -1.6 -3.6 86 8 28 16.1 102.56   -8 LegendNANA
16:00 Legend Double Dagger -1.9 -3.8 87 8 28 16.1 102.58   -9 LegendNANA
17:00 Legend Double Dagger -2.2 -4.1 87 7 32 16.1 102.60   -10 LegendNANA
18:00 Legend Double Dagger -2.4 -4.3 87 7 30 16.1 102.62   -10 LegendNANA
19:00 Legend Double Dagger -2.5 -4.3 87 7 28 16.1 102.63   -10 LegendNANA
20:00 Legend Double Dagger -2.6 -4.6 86 8 26 16.1 102.60   -9 LegendNANA
21:00 Legend Double Dagger -2.6 -4.3 88 7 22 16.1 102.59   -9 LegendNANA
22:00 Legend Double Dagger -2.8 -4.5 88 6 21 16.1 102.59   -9 LegendNANA
23:00 Legend Double Dagger -2.7 -4.6 87 6 22 16.1 102.59   -9 LegendNANA

Notes on Data Quality.

Legend

  • E = Estimated
  • M = Missing
  • NA = Not Available
  • ‡ = Partner data that is not subject to review by the National Climate Archives
Date modified: